DW4207 Weather Reports


Display with metric or nautical units.
time (UTC)temp
F
wind
direction
speed
MPH
gust
MPH
rain 1hr
in
rain 24hr
in
rain mn
in
humidity
%
barometer
mb
20260510231004 65 350 2.0 7.0 0.00 0.00 0.00 34 1018.1
20260510230004 65 351 3.0 7.0 0.00 0.00 0.00 34 1018.1
20260510225004 65 340 2.0 6.0 0.00 0.00 0.00 38 1018.0
20260510224025 65 333 2.0 8.0 0.00 0.00 0.00 36 1018.0
20260510223025 65 328 3.0 8.0 0.00 0.00 0.00 37 1017.9
20260510222025 66 340 3.0 11.0 0.00 0.00 0.00 35 1018.0
20260510221004 66 355 3.0 10.0 0.00 0.00 0.00 34 1018.0
20260510220005 66 353 3.0 8.0 0.00 0.00 0.00 33 1018.0
20260510215004 66 342 4.0 12.0 0.00 0.00 0.00 36 1018.1
20260510214004 67 332 4.0 9.0 0.00 0.00 0.00 36 1018.0
20260510213004 67 354 5.0 10.0 0.00 0.00 0.00 36 1018.0
20260510212004 67 345 3.0 8.0 0.00 0.00 0.00 39 1018.0
20260510211004 67 343 3.0 8.0 0.00 0.00 0.00 35 1017.9
20260510210005 66 350 4.0 9.0 0.00 0.00 0.00 38 1017.8
20260510205025 66 347 3.0 8.0 0.00 0.00 0.00 41 1017.8
20260510204004 67 359 3.0 9.0 0.00 0.00 0.00 39 1017.7
20260510203025 66 280 3.0 9.0 0.00 0.00 0.00 41 1017.7
20260510202004 66 351 4.0 9.0 0.00 0.00 0.00 37 1017.6
20260510200003 67 344 4.0 10.0 0.00 0.00 0.00 39 1017.6
20260510195003 67 353 3.0 8.0 0.00 0.00 0.00 38 1017.5
20260510194003 66 304 3.0 9.0 0.00 0.00 0.00 40 1017.6
20260510193003 66 329 3.0 9.0 0.00 0.00 0.00 41 1017.7
20260510192003 67 329 2.0 8.0 0.00 0.00 0.00 40 1017.9
20260510191003 65 168 2.0 5.0 0.00 0.00 0.00 43 1017.9
20260510190003 67 336 3.0 8.0 0.00 0.00 0.00 45 1017.9
20260510185003 66 339 3.0 9.0 0.00 0.00 0.00 42 1018.0
20260510184003 66 273 2.0 7.0 0.00 0.00 0.00 45 1018.2
20260510183003 66 292 3.0 7.0 0.00 0.00 0.00 47 1018.1
20260510182003 65 17 3.0 5.0 0.00 0.00 0.00 39 1018.1
20260510181003 66 347 4.0 13.0 0.00 0.00 0.00 41 1018.1
20260510180024 64 296 3.0 8.0 0.00 0.00 0.00 45 1018.1
20260510175024 65 345 4.0 13.0 0.00 0.00 0.00 41 1018.1
20260510174003 65 16 3.0 9.0 0.00 0.00 0.00 40 1018.2
20260510173003 64 208 2.0 7.0 0.00 0.00 0.00 50 1018.1
20260510172003 64 339 3.0 10.0 0.00 0.00 0.00 41 1018.1
20260510171024 65 6 3.0 8.0 0.00 0.00 0.00 46 1018.2
20260510170024 65 293 2.0 6.0 0.00 0.00 0.00 45 1018.0
20260510165003 65 14 3.0 9.0 0.00 0.00 0.00 51 1018.2
20260510164003 64 350 3.0 11.0 0.00 0.00 0.00 44 1018.3
20260510163003 64 356 3.0 10.0 0.00 0.00 0.00 44 1017.9
20260510162003 64 354 4.0 10.0 0.00 0.00 0.00 43 1017.8
20260510161003 64 21 3.0 8.0 0.00 0.00 0.00 44 1017.7
20260510160003 63 9 2.0 8.0 0.00 0.00 0.00 43 1017.7
20260510155003 63 14 3.0 7.0 0.00 0.00 0.00 43 1017.7
20260510154003 63 349 3.0 9.0 0.00 0.00 0.00 45 1017.8
20260510153003 63 355 3.0 8.0 0.00 0.00 0.00 41 1017.7
20260510152003 62 353 4.0 8.0 0.00 0.00 0.00 47 1017.7
20260510151003 62 13 2.0 8.0 0.00 0.00 0.00 52 1017.7
20260510150003 61 33 3.0 8.0 0.00 0.00 0.00 53 1017.6
20260510145003 61 24 3.0 8.0 0.00 0.00 0.00 54 1017.5
20260510144003 61 357 3.0 8.0 0.00 0.00 0.00 58 1017.4
20260510143024 60 359 3.0 8.0 0.00 0.00 0.00 54 1017.4
20260510142003 60 332 3.0 8.0 0.00 0.00 0.00 56 1017.3
20260510141003 60 353 3.0 8.0 0.00 0.00 0.00 58 1017.2
20260510140003 60 2 3.0 8.0 0.00 0.00 0.00 61 1017.1
20260510135024 59 359 3.0 9.0 0.00 0.00 0.00 60 1016.9
20260510134003 59 351 3.0 8.0 0.00 0.00 0.00 62 1016.8
20260510133003 58 359 3.0 8.0 0.00 0.00 0.00 61 1016.7
20260510132003 59 351 3.0 7.0 0.00 0.00 0.00 61 1016.7
20260510131003 58 358 3.0 7.0 0.00 0.00 0.00 58 1016.5
20260510130003 58 2 3.0 8.0 0.00 0.00 0.00 59 1016.3
20260510125003 58 354 3.0 8.0 0.00 0.00 0.00 60 1016.1
20260510124003 57 10 1.0 3.0 0.00 0.00 0.00 60 1015.8
20260510123003 56 360 2.0 5.0 0.00 0.00 0.00 63 1015.6
20260510122024 55 6 1.0 4.0 0.00 0.00 0.00 66 1015.4
20260510121024 54 358 1.0 4.0 0.00 0.00 0.00 68 1015.5
20260510120003 54 354 1.0 3.0 0.00 0.00 0.00 71 1015.0
20260510115003 52 359 0.0 2.0 0.00 0.00 0.00 74 1014.9
20260510114003 51 0 0.0 0.0 0.00 0.00 0.00 76 1014.9
20260510113003 50 0 0.0 0.0 0.00 0.00 0.00 78 1014.7
20260510112003 50 0 0.0 0.0 0.00 0.00 0.00 78 1014.6
20260510111003 50 0 0.0 0.0 0.00 0.00 0.00 78 1014.2
20260510110003 50 0 0.0 0.0 0.00 0.00 0.00 77 1013.9
20260510105024 50 0 0.0 0.0 0.00 0.00 0.00 77 1013.8
20260510104004 50 0 0.0 0.0 0.00 0.00 0.00 77 1013.7
20260510103025 50 0 0.0 0.0 0.00 0.00 0.00 76 1013.4
20260510102025 51 0 0.0 0.0 0.00 0.00 0.00 75 1013.3
20260510101004 51 0 0.0 0.0 0.00 0.00 0.00 74 1013.4
20260510100004 52 0 0.0 0.0 0.00 0.00 0.00 71 1013.3
20260510095004 53 0 0.0 0.0 0.00 0.00 0.00 68 1013.5
20260510094004 53 346 0.0 2.0 0.00 0.00 0.00 68 1013.4
20260510093004 54 346 0.0 2.0 0.00 0.00 0.00 67 1013.1
20260510092025 54 355 0.0 1.0 0.00 0.00 0.00 65 1013.1
20260510091004 55 20 1.0 3.0 0.00 0.00 0.00 64 1013.1
20260510090004 55 24 1.0 5.0 0.00 0.00 0.00 64 1013.1
20260510085004 56 359 1.0 5.0 0.00 0.00 0.00 63 1012.8
20260510084004 56 360 2.0 4.0 0.00 0.00 0.00 62 1012.5
20260510083004 56 23 1.0 3.0 0.00 0.00 0.00 61 1012.3
20260510082004 56 357 1.0 5.0 0.00 0.00 0.00 63 1012.3
20260510081004 56 356 2.0 7.0 0.00 0.00 0.00 63 1012.3
20260510080004 57 358 2.0 6.0 0.00 0.01 0.00 63 1011.9
20260510075004 57 357 2.0 4.0 0.00 0.01 0.00 63 1011.9
20260510074004 57 350 2.0 4.0 0.00 0.01 0.00 64 1012.1
20260510073004 57 352 1.0 4.0 0.00 0.01 0.00 62 1011.8
20260510072004 57 354 2.0 4.0 0.00 0.01 0.00 62 1011.6
20260510071004 58 358 1.0 5.0 0.00 0.01 0.00 61 1011.5
20260510070004 58 350 2.0 5.0 0.00 0.01 0.00 61 1011.6
20260510065004 58 348 2.0 4.0 0.00 0.01 0.00 59 1011.7
20260510064004 59 8 1.0 4.0 0.00 0.01 0.00 58 1011.3
20260510063004 59 9 2.0 8.0 0.00 0.01 0.00 58 1011.2
20260510062004 59 359 3.0 10.0 0.00 0.01 0.00 60 1011.2
20260510061004 60 347 3.0 8.0 0.00 0.01 0.00 61 1011.4
20260510060025 60 348 3.0 7.0 0.00 0.01 0.00 64 1011.3
20260510055004 60 351 3.0 8.0 0.00 0.01 0.00 66 1010.8
20260510054004 60 354 2.0 5.0 0.00 0.01 0.00 74 1010.8
20260510053004 59 0 0.0 0.0 0.00 0.01 0.00 78 1010.6
20260510052004 60 0 0.0 0.0 0.00 0.01 0.00 76 1010.7
20260510051025 60 0 0.0 2.0 0.00 0.01 0.00 76 1010.6
20260510050004 62 268 0.0 2.0 0.00 0.01 0.00 73 1010.5
20260510045004 62 268 0.0 2.0 0.00 0.01 0.00 74 1010.2
20260510044004 63 266 0.0 2.0 0.00 0.01 0.00 72 1010.2
20260510043004 64 242 1.0 3.0 0.00 0.01 0.00 72 1010.2
20260510042004 64 236 1.0 4.0 0.00 0.01 0.00 73 1010.2
20260510041025 65 232 1.0 4.0 0.00 0.01 0.00 73 1010.1
20260510040004 64 235 0.0 2.0 0.00 0.01 0.00 74 1010.0
20260510035025 64 232 1.0 4.0 0.00 0.01 0.01 74 1009.9
20260510034004 64 231 1.0 4.0 0.00 0.01 0.01 74 1010.0
20260510033025 64 241 1.0 3.0 0.00 0.01 0.01 74 1010.0
20260510032004 64 242 2.0 3.0 0.00 0.01 0.01 73 1010.0
20260510031004 64 298 1.0 4.0 0.00 0.01 0.01 73 1010.0
20260510030004 64 242 1.0 4.0 0.00 0.01 0.01 73 1009.7
20260510025004 64 240 0.0 2.0 0.00 0.01 0.01 73 1009.6
20260510024004 64 220 1.0 4.0 0.00 0.01 0.01 73 1009.4
20260510023004 64 207 2.0 3.0 0.00 0.01 0.01 72 1009.2
20260510022004 64 199 1.0 4.0 0.00 0.01 0.01 72 1009.0
20260510021004 65 197 2.0 5.0 0.00 0.01 0.01 72 1008.8
20260510020025 65 197 1.0 5.0 0.00 0.01 0.01 71 1008.6
20260510015004 65 182 1.0 4.0 0.00 0.01 0.01 71 1008.5
20260510014025 65 202 1.0 6.0 0.00 0.01 0.01 71 1008.3
20260510013004 66 200 2.0 5.0 0.00 0.01 0.01 69 1008.1
20260510012004 66 201 1.0 4.0 0.00 0.01 0.01 69 1007.9
20260510011004 66 206 1.0 4.0 0.00 0.01 0.01 67 1007.8
20260510010004 67 204 1.0 5.0 0.00 0.01 0.01 66 1007.6
20260510005004 67 209 2.0 4.0 0.00 0.02 0.01 65 1007.5
20260510004004 68 219 3.0 8.0 0.00 0.02 0.01 64 1007.3
20260510003004 68 223 5.0 11.0 0.00 0.02 0.01 63 1007.3
20260510002004 69 223 4.0 11.0 0.00 0.02 0.01 63 1007.2
20260510001004 69 229 5.0 10.0 0.00 0.02 0.01 63 1007.0
20260510000004 70 219 4.0 9.0 0.00 0.02 0.01 62 1006.9
20260509235004 70 231 3.0 9.0 0.00 0.02 0.01 62 1006.9
20260509234004 70 228 4.0 11.0 0.00 0.03 0.01 62 1006.8
20260509233004 70 225 7.0 14.0 0.00 0.03 0.01 61 1006.7
20260509232004 71 229 6.0 12.0 0.00 0.03 0.01 60 1006.8